[[{"header":{"parameterUnit":"m.s-1","parameterCategory":2,"la1":30.2991,"la2":30.254,"lo1":-89.0895,"lo2":-89.0444,"dy":0.0017,"dx":0.0017,"nx":28,"ny":28,"refTime":"2025-03-03T09:00:00:Z","depth":"0","parameterNumber":2,"parameterNumberName":"U-component_of_CURRENTS"},"data":[0,0,0,0,0,0,0,0,0,0,0,0,0,0,0,0,0,0,0,0,0,0,0,0,0,0,0,0,0,0,0,0,0,0,0,0,0,0,0,0,0,0,0,0,0,0,0,0,0,0,0,0,0,0,0,0,0,0,0.3879,0.3879,0,0.3904,0.3904,0.3904,0.3886,0.3886,0.3885,0.3885,0.3859,0.3858,0.3858,0,0,0,0,0,0,0,0,0,0,0,0,0,0.3825,0.3826,0.3879,0.3879,0.388,0.3904,0.3904,0.3904,0.3886,0.3886,0.3885,0.3885,0.3859,0.3858,0.3858,0,0,0,0,0,0,0,0,0,0,0,0,0,0.3846,0.3826,0.3879,0.3877,0.3877,0.3904,0.3904,0.3904,0.3887,0.3886,0.3885,0.3884,0.3859,0.3858,0.3858,0.3869,0,0,0.3857,0.3857,0,0,0,0,0,0,0,0,0.3845,0.3847,0.3876,0.3877,0.3877,0.3895,0.3876,0.3891,0.3887,0.3879,0.3885,0.3884,0.3869,0.3868,0.3869,0.3868,0.3867,0.3857,0.3856,0.3856,0.3856,0,0,0,0,0,0,0,0.3843,0.3846,0.3885,0.3877,0.3878,0.3879,0.388,0.3879,0.3874,0.388,0.3879,0.3888,0.3868,0.387,0.3868,0.3866,0.3857,0.3856,0.3856,0.3856,0.3921,0.3923,0,0,0,0,0,0,0.3848,0.3845,0.3884,0.3886,0.3863,0.388,0.3882,0.3887,0.3875,0.3874,0.3889,0.3888,0.3871,0.3869,0.3867,0.3908,0.3856,0.3856,0.3856,0.3919,0.3921,0.3924,0,0,0,0,0,0,0.3847,0.3851,0.3883,0.3869,0.3874,0.3882,0.3888,0.3888,0.3894,0.3883,0.388,0.3896,0.387,0.3868,0.3882,0.3906,0.3856,0.3855,0.3917,0.392,0.3922,0.3972,0,0,0,0,0,0,0.3845,0.385,0.3852,0.387,0.3875,0.3905,0.3889,0.3889,0.3902,0.39,0.3888,0.3885,0.3869,0.3883,0.3882,0.3904,0.3855,0.3914,0.3918,0.3922,0.3967,0.3976,0.3983,0,0,0,0,0,0.3843,0.3843,0.3851,0.3856,0.3877,0.3906,0.3909,0.391,0.3903,0.3911,0.391,0.3885,0.3906,0.3884,0.3882,0.3905,0.3912,0.3917,0.3921,0.3964,0.3974,0.3983,0,0,0,0,0,0,0.3811,0.3843,0.3851,0.3859,0.3887,0.3905,0.3909,0.3918,0.3923,0.3919,0.3905,0.3902,0.393,0.3915,0.3892,0.3939,0.3908,0.3912,0.3941,0.395,0.3958,0.3959,0.3855,0,0,0,0,0,0.381,0.3821,0.3856,0.3862,0.3878,0.3898,0.3908,0.3917,0.3929,0.393,0.3926,0.3929,0.3947,0.3945,0.3956,0.3971,0.398,0.399,0.3997,0.4004,0.4007,0.4059,0.4072,0.3938,0.3938,0.3938,0,0,0.3796,0.3818,0.3821,0.3857,0.3874,0.3902,0.3901,0.3924,0.3944,0.3927,0.3943,0.3957,0.3962,0.3989,0.3999,0.3975,0.4048,0.401,0.4015,0.4014,0.4065,0.4078,0.4089,0.3941,0.3941,0.394,0,0,0.3779,0.38,0.3807,0.3837,0.3878,0.3902,0.3914,0.3945,0.3955,0.3982,0.3987,0.4018,0.4024,0.4043,0.4051,0.4109,0.4096,0.4113,0.4139,0.4191,0.4202,0.4211,0.424,0.4252,0.4106,0.4106,0.4106,0,0.3762,0.3778,0.3814,0.3836,0.3859,0.3905,0.3925,0.3953,0.3983,0.4005,0.3992,0.4056,0.4052,0.4108,0.4126,0.4125,0.4145,0.4099,0.42,0.421,0.4219,0.4246,0.4259,0.4109,0.4109,0.4109,0.4108,0,0.3756,0.3775,0.3785,0.3833,0.3865,0.3891,0.3945,0.398,0.4004,0.4036,0.4098,0.4115,0.4152,0.4164,0.4155,0.4229,0.4219,0.4211,0.4171,0.4235,0.426,0.4272,0.4113,0.4112,0.4112,0.4111,0,0,0.3702,0.3766,0.3768,0.379,0.3865,0.3889,0.3947,0.4012,0.406,0.4099,0.4156,0.4199,0.4225,0.4238,0.425,0.4286,0.4363,0.4272,0.4273,0.4292,0.4468,0.443,0.4439,0.4374,0.4376,0.4378,0.4459,0,0.3685,0.3712,0.3758,0.3794,0.3818,0.3892,0.3944,0.4015,0.4079,0.4151,0.4204,0.4263,0.425,0.4279,0.4319,0.4365,0.4398,0.4341,0.4411,0.4412,0.4364,0.4453,0.4337,0.4397,0.4471,0.4473,0.4474,0,0.3664,0.3689,0.3709,0.3783,0.3801,0.3835,0.394,0.3995,0.4123,0.4183,0.4269,0.4316,0.4398,0.4369,0.4475,0.4442,0.4456,0.4477,0.448,0.4435,0.4398,0.4347,0.4416,0.4338,0.4493,0.4491,0.449,0,0.36,0.3656,0.3666,0.3689,0.3782,0.381,0.3867,0.3994,0.4065,0.421,0.4284,0.4389,0.4452,0.4502,0.4551,0.452,0.4658,0.4619,0.4596,0.4593,0.4501,0.4486,0.4495,0.4683,0.4682,0.4682,0.4682,0,0.3565,0.3575,0.3632,0.3639,0.3675,0.3756,0.3827,0.3923,0.407,0.4165,0.4286,0.4393,0.4489,0.4577,0.4594,0.465,0.4698,0.4623,0.4624,0.4515,0.4501,0.4433,0.438,0.4685,0.4685,0.4684,0.4683,0,0.3496,0.3532,0.3549,0.3619,0.3643,0.3665,0.3794,0.3854,0.4015,0.4148,0.4197,0.4416,0.4549,0.4627,0.4731,0.4707,0.464,0.4752,0.461,0.4593,0.4468,0.4421,0.4241,0.4124,0.4736,0.4736,0.4735,0,0.3464,0.3461,0.3509,0.3514,0.354,0.3594,0.3639,0.3806,0.389,0.4159,0.4216,0.4415,0.4547,0.4712,0.4725,0.4765,0.4637,0.4656,0.4569,0.4466,0.4417,0.4216,0.4116,0.4468,0.4465,0.4464,0.4462,0,0.3405,0.3413,0.3422,0.343,0.3453,0.3494,0.3574,0.3642,0.3845,0.3986,0.4186,0.432,0.4524,0.4572,0.4653,0.465,0.4455,0.4615,0.4555,0.4252,0.3988,0.3875,0.4399,0.4445,0.4446,0.4448,0.4448,0.4449,0.3351,0.3331,0.3333,0.333,0.3353,0.3368,0.3374,0.3499,0.3625,0.3811,0.4038,0.4192,0.4409,0.4532,0.4499,0.4402,0.4321,0.4295,0.4263,0.408,0.391,0.4389,0.4407,0.4408,0.441,0.4411,0.4412,0,0.3267,0.3244,0.3237,0.3215,0.3182,0.3242,0.3304,0.3302,0.3389,0.3629,0.3795,0.4018,0.4116,0.423,0.425,0.4104,0.3879,0.3989,0.3698,0.363,0.4124,0.4059,0.3946,0.3946,0.3946,0.3946,0.3946,0.3946,0.3219,0.3159,0.3139,0.3041,0.3027,0.2957,0.2961,0.3003,0.3128,0.3281,0.3418,0.3603,0.3928,0.408,0.3999,0.3886,0.3601,0.3417,0.3384,0.3785,0.381,0.3834,0.3763,0.359,0.3589,0.2759,0.2753,0.2749]},{"header":{"parameterUnit":"m.s-1","parameterCategory":2,"la1":30.2991,"la2":30.254,"lo1":-89.0895,"lo2":-89.0444,"dy":0.0017,"dx":0.0017,"nx":28,"ny":28,"refTime":"2025-03-03T09:00:00:Z","depth":"0","parameterNumber":3,"parameterNumberName":"V-component_of_CURRENTS"},"data":[0,0,0,0,0,0,0,0,0,0,0,0,0,0,0,0,0,0,0,0,0,0,0,0,0,0,0,0,0,0,0,0,0,0,0,0,0,0,0,0,0,0,0,0,0,0,0,0,0,0,0,0,0,0,0,0,0,0,0.0386,0.0386,0,0.0328,0.0327,0.0326,0.0282,0.0282,0.0282,0.0281,0.0208,0.0206,0.0204,0,0,0,0,0,0,0,0,0,0,0,0,0,0.0403,0.0403,0.0386,0.0386,0.0385,0.0328,0.0327,0.0326,0.0282,0.0282,0.0282,0.0281,0.0209,0.0206,0.0204,0,0,0,0,0,0,0,0,0,0,0,0,0,0.0373,0.0403,0.0386,0.0358,0.0355,0.0328,0.0327,0.0325,0.0282,0.0282,0.0282,0.0281,0.0209,0.0207,0.0204,0.0194,0,0,0.0196,0.0195,0,0,0,0,0,0,0,0,0.0375,0.0372,0.0363,0.036,0.0357,0.0314,0.0306,0.0281,0.0282,0.0308,0.0281,0.0281,0.0244,0.0238,0.0225,0.019,0.0187,0.0196,0.0194,0.0193,0.0192,0,0,0,0,0,0,0,0.0377,0.0374,0.0361,0.0362,0.0358,0.0329,0.0324,0.0301,0.0276,0.0305,0.0303,0.0299,0.0241,0.0228,0.0223,0.0186,0.0196,0.0193,0.0192,0.0191,0.0146,0.0147,0,0,0,0,0,0,0.0392,0.0377,0.0363,0.0359,0.0368,0.0329,0.0324,0.0326,0.0277,0.0269,0.03,0.0298,0.0232,0.0226,0.022,0.0228,0.0193,0.019,0.0189,0.0146,0.0146,0.0147,0,0,0,0,0,0,0.0393,0.0392,0.0365,0.0368,0.0363,0.033,0.0332,0.0325,0.0316,0.0273,0.0265,0.0298,0.0232,0.0224,0.0209,0.0224,0.0189,0.0187,0.0145,0.0146,0.0146,0.023,0,0,0,0,0,0,0.0394,0.0392,0.0397,0.0369,0.0363,0.0362,0.0332,0.0324,0.0315,0.0312,0.0269,0.0261,0.0231,0.0213,0.0207,0.022,0.0185,0.0145,0.0146,0.0146,0.0227,0.0233,0.0239,0,0,0,0,0,0.0394,0.041,0.0398,0.0396,0.0372,0.0363,0.0357,0.033,0.0316,0.0319,0.029,0.0263,0.0213,0.0212,0.0204,0.0217,0.0144,0.0145,0.0146,0.0224,0.0232,0.0239,0,0,0,0,0,0,0.0419,0.0406,0.0393,0.0403,0.0388,0.0357,0.0357,0.0338,0.0317,0.0313,0.027,0.0261,0.0251,0.0222,0.0222,0.0205,0.0173,0.0173,0.0235,0.0242,0.0248,0.027,0.0183,0,0,0,0,0,0.0428,0.0436,0.0415,0.0423,0.0419,0.0388,0.038,0.0364,0.0342,0.0332,0.0302,0.027,0.0247,0.0237,0.0208,0.0204,0.0166,0.0205,0.0211,0.0217,0.0228,0.0182,0.0185,0.015,0.015,0.015,0,0,0.0438,0.0433,0.0436,0.0429,0.0413,0.0424,0.0383,0.038,0.0388,0.0328,0.0328,0.0289,0.0249,0.0241,0.0235,0.0222,0.0207,0.0218,0.0223,0.0231,0.0183,0.0187,0.019,0.015,0.015,0.015,0,0,0.0472,0.046,0.0481,0.0477,0.0466,0.045,0.0455,0.043,0.0417,0.041,0.0369,0.0344,0.0308,0.0284,0.0267,0.029,0.0238,0.0278,0.0333,0.0288,0.0291,0.0293,0.025,0.0248,0.0286,0.0286,0.0286,0,0.0483,0.051,0.0484,0.0506,0.0514,0.0471,0.05,0.0481,0.0454,0.0453,0.0423,0.0369,0.033,0.0325,0.033,0.0306,0.0271,0.0311,0.0298,0.0299,0.0299,0.0255,0.0251,0.029,0.029,0.0289,0.0289,0,0.0536,0.0556,0.0569,0.0585,0.0589,0.0605,0.0585,0.0577,0.0553,0.0536,0.0518,0.0456,0.0429,0.0407,0.0376,0.0367,0.0338,0.0308,0.0283,0.0308,0.0259,0.0254,0.0296,0.0295,0.0293,0.0292,0,0,0.0566,0.0601,0.0606,0.0636,0.0636,0.065,0.0659,0.0664,0.0686,0.0631,0.0646,0.0585,0.0547,0.0524,0.0473,0.0432,0.0398,0.038,0.0376,0.0346,0.0301,0.0282,0.0273,0.0366,0.0365,0.0365,0.0266,0,0.0616,0.0685,0.0684,0.0749,0.0785,0.0757,0.0777,0.0772,0.0757,0.0757,0.068,0.0673,0.0595,0.0584,0.0529,0.0436,0.0388,0.0428,0.0274,0.027,0.0256,0.0268,0.0309,0.0224,0.026,0.0259,0.0258,0,0.0669,0.0713,0.0788,0.0847,0.0859,0.0885,0.0919,0.0936,0.0916,0.0905,0.0869,0.0808,0.0745,0.0669,0.0518,0.0547,0.0435,0.0349,0.0342,0.0294,0.0241,0.0203,0.0212,0.0055,0.0249,0.025,0.0251,0,0.0719,0.0787,0.0856,0.0875,0.0926,0.0949,0.0973,0.0979,0.1023,0.1003,0.102,0.0924,0.0889,0.0732,0.0548,0.0533,0.0373,0.0328,0.02,0.0197,0.0187,0.0185,0.0035,0.0215,0.0215,0.0215,0.0215,0,0.0779,0.0833,0.0885,0.0925,0.1014,0.1019,0.111,0.1112,0.1146,0.1226,0.1106,0.1131,0.0903,0.078,0.059,0.0388,0.0401,0.0215,0.0173,0.0217,0.0218,0.0044,-0.0081,0.0211,0.0212,0.0213,0.0214,0,0.0824,0.0854,0.0944,0.1013,0.1042,0.1107,0.1214,0.1285,0.129,0.1384,0.1382,0.1291,0.1138,0.0892,0.0648,0.0465,0.0156,0.0177,0.0245,0.0213,-0.0052,-0.0174,-0.038,-0.0465,0.0023,0.0022,0.0021,0,0.0855,0.0904,0.1014,0.1081,0.1117,0.1218,0.1299,0.1354,0.145,0.1498,0.1554,0.1427,0.1387,0.1004,0.0653,0.0316,0.0128,0.0119,0.0091,-0.0056,-0.0223,-0.0285,-0.0346,0.0104,0.0104,0.0104,0.0104,0,0.0918,0.0951,0.1028,0.1167,0.1266,0.1398,0.1519,0.1621,0.1705,0.1787,0.1867,0.1831,0.1468,0.1162,0.0681,0.0429,0.0008,0.0106,-0.0064,-0.0186,-0.0246,-0.0349,0.0154,0.0103,0.0103,0.0103,0.0103,0.0104,0.0962,0.1028,0.1129,0.1263,0.1388,0.1557,0.1693,0.1843,0.202,0.2188,0.2129,0.2157,0.1677,0.1035,0.0644,0.0014,-0.0018,-0.015,-0.0291,-0.0341,-0.0412,0.0091,0.0005,0.0004,0.0004,0.0003,0.0003,0,0.1017,0.1095,0.1221,0.1387,0.1537,0.1597,0.1828,0.1994,0.2231,0.241,0.2504,0.2335,0.1723,0.1081,0.0218,-0.0249,-0.0427,-0.052,-0.0598,-0.0647,-0.0204,-0.0186,-0.0294,-0.0293,-0.0293,-0.0293,-0.0293,-0.0293,0.1047,0.1166,0.1232,0.1476,0.1605,0.1835,0.1984,0.2239,0.2436,0.2711,0.2801,0.2828,0.2359,0.0713,-0.0333,-0.0598,-0.0908,-0.1013,-0.1183,-0.0877,-0.0852,-0.0828,-0.0837,-0.1079,-0.1081,-0.151,-0.1515,-0.1519]}],[{"header":{"parameterUnit":"m.s-1","parameterCategory":2,"la1":30.2991,"la2":30.254,"lo1":-89.0895,"lo2":-89.0444,"dy":0.0017,"dx":0.0017,"nx":28,"ny":28,"refTime":"2025-03-03T09:00:00:Z","depth":"2","parameterNumber":2,"parameterNumberName":"U-component_of_CURRENTS"},"data":[0,0,0,0,0,0,0,0,0,0,0,0,0,0,0,0,0,0,0,0,0,0,0,0,0,0,0,0,0,0,0,0,0,0,0,0,0,0,0,0,0,0,0,0,0,0,0,0,0,0,0,0,0,0,0,0,0,0,0.3575,0.3576,0,0.3594,0.3594,0.3594,0.3584,0.3584,0.3584,0.3583,0.3568,0.3567,0.3567,0,0,0,0,0,0,0,0,0,0,0,0,0,0.3535,0.3535,0.3575,0.3576,0.3576,0.3594,0.3594,0.3594,0.3584,0.3584,0.3584,0.3583,0.3568,0.3568,0.3567,0,0,0,0,0,0,0,0,0,0,0,0,0,0.355,0.3536,0.3575,0.3576,0.3577,0.3594,0.3594,0.3594,0.3584,0.3584,0.3583,0.3583,0.3568,0.3568,0.3567,0.357,0,0,0.3566,0.3566,0,0,0,0,0,0,0,0,0.3549,0.3551,0.3575,0.3576,0.3577,0.3589,0.3574,0.3585,0.3584,0.3577,0.3583,0.3583,0.3574,0.3573,0.3573,0.357,0.3569,0.3566,0.3566,0.3566,0.3566,0,0,0,0,0,0,0,0.3548,0.355,0.3579,0.3576,0.3577,0.3577,0.3579,0.3576,0.3574,0.3578,0.3578,0.3586,0.3574,0.3573,0.3573,0.3569,0.3566,0.3566,0.3565,0.3565,0.363,0.3632,0,0,0,0,0,0,0.3553,0.3549,0.3578,0.358,0.3566,0.3579,0.358,0.3583,0.3575,0.3574,0.3586,0.3586,0.3574,0.3573,0.3572,0.362,0.3566,0.3565,0.3565,0.3628,0.363,0.3632,0,0,0,0,0,0,0.3552,0.3555,0.3578,0.3568,0.3571,0.358,0.3583,0.3583,0.3595,0.3582,0.358,0.36,0.3574,0.3572,0.359,0.3617,0.3565,0.3565,0.3626,0.3629,0.3631,0.3686,0,0,0,0,0,0,0.355,0.3554,0.3559,0.3568,0.3572,0.3599,0.3584,0.3584,0.3601,0.3601,0.3593,0.359,0.3574,0.359,0.3589,0.3616,0.3565,0.3623,0.3627,0.363,0.3682,0.3691,0.3698,0,0,0,0,0,0.3549,0.3553,0.3559,0.3563,0.3578,0.36,0.3602,0.3604,0.3602,0.3613,0.3613,0.3591,0.3613,0.3591,0.359,0.3617,0.3621,0.3626,0.363,0.3679,0.3689,0.3698,0,0,0,0,0,0,0.3531,0.3553,0.3559,0.3568,0.3591,0.36,0.3609,0.3616,0.3624,0.3625,0.3609,0.3607,0.3638,0.3623,0.36,0.365,0.3616,0.3621,0.3654,0.3664,0.3672,0.3675,0.3564,0,0,0,0,0,0.3534,0.3544,0.3568,0.3576,0.359,0.3604,0.3614,0.3622,0.3632,0.3636,0.3633,0.3637,0.3654,0.3654,0.3663,0.3681,0.3687,0.3701,0.3709,0.3716,0.372,0.3768,0.378,0.3647,0.3646,0.3646,0,0,0.3527,0.3542,0.3546,0.3574,0.3589,0.3612,0.3609,0.3633,0.3652,0.3633,0.3654,0.3667,0.3668,0.3696,0.3708,0.3684,0.376,0.3722,0.3727,0.3727,0.3774,0.3787,0.3798,0.3649,0.3649,0.3648,0,0,0.352,0.3538,0.3546,0.3571,0.3605,0.3623,0.3636,0.3661,0.3672,0.37,0.3702,0.3733,0.374,0.3755,0.3761,0.3819,0.3808,0.3826,0.3857,0.3904,0.3915,0.3925,0.3953,0.3965,0.3821,0.3821,0.3821,0,0.3512,0.3525,0.3553,0.3574,0.3593,0.3631,0.365,0.3675,0.3702,0.3723,0.3714,0.3772,0.3769,0.382,0.384,0.3837,0.3856,0.3816,0.3914,0.3924,0.3933,0.3959,0.3972,0.3824,0.3824,0.3824,0.3823,0,0.3513,0.3531,0.3542,0.3581,0.361,0.3634,0.3679,0.3713,0.3737,0.3764,0.3825,0.3837,0.3872,0.3884,0.3873,0.3945,0.3937,0.3925,0.3885,0.395,0.3974,0.3986,0.3829,0.3828,0.3827,0.3826,0,0,0.3475,0.353,0.3533,0.355,0.3616,0.3635,0.369,0.3747,0.3793,0.3831,0.3887,0.3926,0.3951,0.3962,0.3971,0.4005,0.4082,0.3991,0.3992,0.4012,0.4182,0.4139,0.4147,0.4091,0.4093,0.4095,0.4174,0,0.3467,0.3492,0.353,0.3564,0.3584,0.3647,0.3696,0.3759,0.3818,0.3887,0.3933,0.3991,0.3977,0.4007,0.4044,0.4084,0.4116,0.4061,0.4123,0.4125,0.4073,0.4161,0.3828,0.3868,0.4185,0.4187,0.4188,0,0.3453,0.3474,0.3496,0.3558,0.3575,0.3607,0.3702,0.3753,0.387,0.3928,0.4008,0.405,0.4128,0.4099,0.4196,0.4165,0.4178,0.4195,0.4198,0.4144,0.4104,0.3856,0.3877,0.4208,0.4206,0.4205,0.4204,0,0.34,0.345,0.3461,0.3481,0.3563,0.359,0.3643,0.3759,0.3825,0.3962,0.4032,0.4129,0.4189,0.4234,0.4275,0.4245,0.4372,0.4331,0.4301,0.4297,0.4019,0.3987,0.4391,0.4391,0.4391,0.439,0.439,0,0.3372,0.3382,0.3434,0.3442,0.3478,0.355,0.3619,0.3707,0.3843,0.3931,0.4044,0.4138,0.4228,0.4305,0.4318,0.4362,0.4411,0.4329,0.4327,0.403,0.4,0.4292,0.4279,0.4393,0.4393,0.4392,0.4392,0,0.3312,0.3346,0.3362,0.3428,0.3451,0.3475,0.3594,0.365,0.3802,0.3924,0.3972,0.4168,0.4287,0.4355,0.4448,0.4418,0.4458,0.445,0.4096,0.4052,0.4336,0.4325,0.4428,0.4427,0.4427,0.4426,0.4426,0,0.3284,0.3283,0.333,0.3336,0.3361,0.3416,0.3457,0.3612,0.3687,0.3934,0.3983,0.4166,0.4273,0.4415,0.4397,0.4421,0.4483,0.412,0.4004,0.4358,0.4346,0.4336,0.4327,0.3649,0.3642,0.3637,0.3632,0,0.3229,0.324,0.325,0.3262,0.3285,0.332,0.3395,0.3454,0.3641,0.3766,0.3939,0.4052,0.4209,0.412,0.4177,0.4138,0.4093,0.4013,0.4478,0.3709,0.3635,0.362,0.3633,0.3584,0.3588,0.3592,0.3595,0.3597,0.3181,0.3164,0.317,0.3169,0.319,0.3198,0.3197,0.3304,0.341,0.3549,0.376,0.3812,0.3885,0.3821,0.3719,0.3623,0.3901,0.3711,0.3722,0.3741,0.3655,0.3586,0.3508,0.3512,0.3516,0.3519,0.3522,0,0.3099,0.3082,0.3077,0.3056,0.3019,0.3081,0.3127,0.3097,0.3154,0.3318,0.3439,0.3221,0.3208,0.3253,0.3044,0.3065,0.2969,0.2935,0.277,0.2825,0.2872,0.2734,0.2347,0.2342,0.2338,0.2335,0,0,0.3054,0.2997,0.2978,0.2878,0.2867,0.2785,0.2779,0.2771,0.283,0.2828,0.2834,0.3101,0.32,0.274,0.2695,0.2479,0.2618,0.238,0.3337,0.3201,0.3242,0.3354,0.321,0,0,0,0,0]},{"header":{"parameterUnit":"m.s-1","parameterCategory":2,"la1":30.2991,"la2":30.254,"lo1":-89.0895,"lo2":-89.0444,"dy":0.0017,"dx":0.0017,"nx":28,"ny":28,"refTime":"2025-03-03T09:00:00:Z","depth":"2","parameterNumber":3,"parameterNumberName":"V-component_of_CURRENTS"},"data":[0,0,0,0,0,0,0,0,0,0,0,0,0,0,0,0,0,0,0,0,0,0,0,0,0,0,0,0,0,0,0,0,0,0,0,0,0,0,0,0,0,0,0,0,0,0,0,0,0,0,0,0,0,0,0,0,0,0,0.033,0.0329,0,0.0271,0.027,0.0269,0.0228,0.0228,0.0228,0.0228,0.0158,0.0157,0.0155,0,0,0,0,0,0,0,0,0,0,0,0,0,0.0353,0.0353,0.033,0.0329,0.0329,0.0271,0.027,0.0269,0.0229,0.0228,0.0228,0.0228,0.0159,0.0157,0.0155,0,0,0,0,0,0,0,0,0,0,0,0,0,0.0322,0.0353,0.033,0.0303,0.03,0.0271,0.027,0.0269,0.0229,0.0228,0.0228,0.0228,0.016,0.0157,0.0155,0.0143,0,0,0.0147,0.0146,0,0,0,0,0,0,0,0,0.0324,0.0321,0.0307,0.0305,0.0301,0.0258,0.0253,0.0227,0.0229,0.0254,0.0228,0.0228,0.0192,0.0187,0.0174,0.014,0.0137,0.0146,0.0145,0.0144,0.0143,0,0,0,0,0,0,0,0.0326,0.0323,0.0305,0.0307,0.0303,0.0275,0.0271,0.0247,0.0223,0.0252,0.0249,0.0245,0.019,0.0177,0.0172,0.0136,0.0147,0.0144,0.0143,0.0142,0.0097,0.0097,0,0,0,0,0,0,0.034,0.0326,0.0307,0.0303,0.0314,0.0275,0.027,0.0271,0.0224,0.0217,0.0245,0.0244,0.0181,0.0175,0.0169,0.0178,0.0144,0.0141,0.014,0.0097,0.0097,0.0098,0,0,0,0,0,0,0.0341,0.0339,0.0309,0.0314,0.0308,0.0276,0.0276,0.027,0.0262,0.022,0.0212,0.0245,0.0181,0.0173,0.0159,0.0174,0.014,0.0138,0.0096,0.0097,0.0097,0.0178,0,0,0,0,0,0,0.0342,0.034,0.0345,0.0315,0.0309,0.0305,0.0277,0.0269,0.026,0.0257,0.0217,0.0209,0.018,0.0163,0.0156,0.017,0.0136,0.0096,0.0097,0.0097,0.0175,0.0181,0.0187,0,0,0,0,0,0.0343,0.0359,0.0346,0.0344,0.0317,0.0306,0.0301,0.0274,0.0261,0.0265,0.0236,0.0211,0.0162,0.0161,0.0153,0.0166,0.0096,0.0096,0.0097,0.0172,0.018,0.0187,0,0,0,0,0,0,0.0372,0.0355,0.0341,0.035,0.0333,0.03,0.0301,0.0282,0.0262,0.0259,0.0217,0.0209,0.0199,0.0171,0.0171,0.0154,0.0124,0.0123,0.0184,0.0191,0.0197,0.0218,0.0134,0,0,0,0,0,0.0381,0.0388,0.0364,0.0371,0.0366,0.0334,0.0326,0.031,0.0287,0.0278,0.0248,0.0218,0.0194,0.0185,0.0157,0.0152,0.0116,0.0153,0.0159,0.0165,0.0176,0.0131,0.0134,0.01,0.01,0.01,0,0,0.0393,0.0386,0.0388,0.0377,0.0361,0.0369,0.0328,0.0325,0.0333,0.0274,0.0274,0.0236,0.0196,0.0189,0.0182,0.017,0.0155,0.0166,0.0171,0.0179,0.0132,0.0136,0.0139,0.0101,0.0101,0.0101,0,0,0.0429,0.0416,0.0435,0.0429,0.0415,0.0398,0.0402,0.0375,0.0363,0.0355,0.0314,0.0289,0.0254,0.023,0.0213,0.0235,0.0185,0.0224,0.0277,0.0233,0.0235,0.0237,0.0196,0.0194,0.0231,0.0231,0.0231,0,0.0444,0.0467,0.0439,0.0457,0.0464,0.0419,0.0446,0.0427,0.0398,0.0396,0.0367,0.0313,0.0275,0.0269,0.0274,0.025,0.0216,0.0256,0.0242,0.0243,0.0243,0.02,0.0197,0.0235,0.0234,0.0234,0.0234,0,0.0495,0.0513,0.0525,0.0537,0.0538,0.0553,0.053,0.0521,0.0497,0.0479,0.046,0.0399,0.0371,0.0349,0.0319,0.0309,0.0281,0.0252,0.0228,0.0252,0.0205,0.0199,0.0241,0.0239,0.0238,0.0237,0,0,0.053,0.0558,0.0563,0.0589,0.0585,0.0597,0.0605,0.0606,0.0626,0.0571,0.0584,0.0524,0.0486,0.0464,0.0413,0.0372,0.034,0.0323,0.0318,0.029,0.0245,0.0225,0.0216,0.0307,0.0307,0.0307,0.0211,0,0.058,0.0644,0.064,0.07,0.0732,0.0702,0.072,0.0712,0.0696,0.0693,0.0616,0.0608,0.0533,0.0523,0.0468,0.0376,0.033,0.0369,0.0219,0.0215,0.0201,0.0211,0.0233,0.015,0.0205,0.0204,0.0204,0,0.0632,0.0673,0.0743,0.0795,0.0806,0.083,0.0859,0.0874,0.085,0.0837,0.0801,0.074,0.0677,0.0604,0.0456,0.0485,0.0376,0.0292,0.0286,0.0238,0.0185,0.0133,0.0138,0.0194,0.0195,0.0196,0.0196,0,0.0683,0.0746,0.0811,0.0827,0.087,0.0893,0.0914,0.0916,0.0956,0.0934,0.0949,0.0854,0.0818,0.0666,0.0486,0.0472,0.0314,0.027,0.0146,0.0143,0.0118,0.0114,0.0161,0.0161,0.0161,0.0161,0.0162,0,0.0741,0.0793,0.084,0.0877,0.0961,0.0962,0.1048,0.1049,0.1077,0.115,0.1034,0.1053,0.0832,0.071,0.0527,0.0328,0.0341,0.0161,0.012,0.0147,0.0147,0.015,0.015,0.0158,0.0158,0.0159,0.016,0,0.0785,0.0813,0.0897,0.0961,0.0989,0.105,0.1149,0.1215,0.1219,0.1303,0.1302,0.1207,0.1056,0.0818,0.0579,0.0401,0.0199,0.0122,0.0171,0.0137,0.0044,0.0049,-0.0025,-0.0026,-0.0027,-0.0029,-0.0029,0,0.0814,0.086,0.0965,0.1028,0.1062,0.1157,0.1232,0.1283,0.1372,0.1411,0.1461,0.1335,0.1286,0.0911,0.0573,0.0248,0.02,0.0045,0.0017,0.0059,0.0026,0.0033,0.004,0.001,0.0009,0.0009,0.0009,0,0.087,0.0903,0.0976,0.1109,0.1203,0.1328,0.1442,0.1536,0.1612,0.1685,0.175,0.1707,0.135,0.1028,0.0566,0.0336,0.0096,0.0028,0.0057,0.0061,0.0086,0.0056,0.0062,0.0005,0.0006,0.0006,0.0006,0.0006,0.0909,0.0971,0.1069,0.1198,0.1317,0.1477,0.1605,0.174,0.19,0.2031,0.1973,0.1921,0.1519,0.0942,0.0522,0.0072,0.0101,-0.0061,-0.0057,-0.0054,-0.0025,-0.0003,-0.0095,-0.0095,-0.0096,-0.0096,-0.0096,0,0.0956,0.1032,0.1152,0.1312,0.1454,0.1515,0.1732,0.1873,0.2083,0.2188,0.2251,0.187,0.1484,0.1008,0.0353,-0.003,-0.0069,-0.0168,-0.0127,-0.012,-0.0115,-0.0088,-0.0176,-0.0177,-0.0179,-0.018,0,0,0.098,0.1093,0.1157,0.139,0.1517,0.1734,0.1874,0.2081,0.2213,0.2337,0.2314,0.223,0.1639,0.1152,0.0608,0.0222,0.0142,0.0137,0.0244,0.0366,0.0376,-0.0011,0.0044,0,0,0,0,0]}],[{"header":{"parameterUnit":"m.s-1","parameterCategory":2,"la1":30.2991,"la2":30.254,"lo1":-89.0895,"lo2":-89.0444,"dy":0.0017,"dx":0.0017,"nx":28,"ny":28,"refTime":"2025-03-03T09:00:00:Z","depth":"4","parameterNumber":2,"parameterNumberName":"U-component_of_CURRENTS"},"data":[0,0,0,0,0,0,0,0,0,0,0,0,0,0,0,0,0,0,0,0,0,0,0,0,0,0,0,0,0,0,0,0,0,0,0,0,0,0,0,0,0,0,0,0,0,0,0,0,0,0,0,0,0,0,0,0,0,0,0.234,0.2341,0,0.2403,0.2403,0.2404,0.2467,0.2468,0.2469,0.247,0.2552,0.2553,0.2555,0,0,0,0,0,0,0,0,0,0,0,0,0,0.2264,0.2265,0.234,0.2341,0.2342,0.2402,0.2403,0.2404,0.2467,0.2468,0.2469,0.2471,0.2552,0.2553,0.2555,0,0,0,0,0,0,0,0,0,0,0,0,0,0.2306,0.2265,0.234,0.2383,0.2387,0.2402,0.2403,0.2404,0.2466,0.2468,0.247,0.2471,0.2551,0.2553,0.2555,0.2533,0,0,0.256,0.2561,0,0,0,0,0,0,0,0,0.2304,0.2309,0.2376,0.238,0.2385,0.2431,0.2407,0.2449,0.2466,0.2434,0.247,0.2472,0.2514,0.2519,0.2523,0.2537,0.254,0.256,0.2561,0.2562,0.2563,0,0,0,0,0,0,0,0.2301,0.2307,0.2362,0.2376,0.2382,0.2395,0.2403,0.2415,0.2462,0.2437,0.2442,0.2453,0.2517,0.2521,0.2526,0.2541,0.256,0.2562,0.2563,0.2564,0.2692,0.2694,0,0,0,0,0,0,0.2297,0.2304,0.236,0.2364,0.2351,0.2396,0.2404,0.2412,0.2462,0.2472,0.2451,0.2455,0.2517,0.2523,0.2529,0.2638,0.2562,0.2564,0.2565,0.2689,0.2692,0.2695,0,0,0,0,0,0,0.2295,0.2302,0.2358,0.2338,0.2346,0.2395,0.2404,0.2413,0.247,0.2473,0.2483,0.2506,0.2519,0.2526,0.2588,0.2637,0.2565,0.2566,0.2687,0.269,0.2694,0.2772,0,0,0,0,0,0,0.2293,0.23,0.2331,0.2337,0.2347,0.24,0.2403,0.2413,0.2472,0.2479,0.2522,0.2528,0.2521,0.2586,0.259,0.2638,0.2568,0.2684,0.2688,0.2692,0.2767,0.2778,0.2788,0,0,0,0,0,0.229,0.2315,0.2332,0.2341,0.2379,0.2402,0.2409,0.2447,0.2473,0.2503,0.2539,0.253,0.2617,0.2589,0.2593,0.2643,0.2681,0.2687,0.2692,0.2762,0.2776,0.2788,0,0,0,0,0,0,0.2301,0.2324,0.2343,0.2377,0.2406,0.2415,0.2455,0.2475,0.2526,0.2552,0.2554,0.2563,0.2637,0.263,0.2599,0.2695,0.265,0.2656,0.2702,0.2714,0.2725,0.2727,0.2569,0,0,0,0,0,0.2315,0.2346,0.2364,0.24,0.2419,0.2447,0.2473,0.2498,0.2529,0.2556,0.2585,0.262,0.2651,0.2678,0.2701,0.2748,0.2746,0.2786,0.2796,0.2805,0.2812,0.2853,0.2867,0.2712,0.2712,0.2712,0,0,0.2332,0.235,0.2371,0.2407,0.2435,0.2465,0.2468,0.2522,0.2559,0.2555,0.2636,0.2662,0.2674,0.2733,0.2765,0.274,0.2851,0.2812,0.2819,0.2821,0.286,0.2874,0.2888,0.2716,0.2715,0.2715,0,0,0.2358,0.2398,0.2427,0.2453,0.2504,0.2518,0.2545,0.2584,0.2624,0.2687,0.2701,0.276,0.2806,0.2824,0.2836,0.2918,0.2907,0.2938,0.2991,0.3031,0.3044,0.3055,0.3076,0.3088,0.2941,0.2941,0.2941,0,0.2383,0.2413,0.2441,0.2472,0.2504,0.2547,0.2582,0.262,0.268,0.2718,0.2731,0.283,0.2845,0.2907,0.2942,0.2942,0.2959,0.2939,0.3044,0.3055,0.3065,0.3084,0.3096,0.2945,0.2945,0.2944,0.2944,0,0.2408,0.2455,0.2478,0.2529,0.2567,0.261,0.2654,0.2714,0.277,0.2804,0.2902,0.2929,0.2987,0.3006,0.3,0.3086,0.3074,0.3053,0.3007,0.3085,0.31,0.3112,0.2952,0.295,0.2949,0.2948,0,0,0.2399,0.248,0.2494,0.2527,0.2603,0.2627,0.2708,0.2775,0.2842,0.2913,0.2991,0.3058,0.3094,0.311,0.3123,0.3159,0.3246,0.3148,0.3148,0.3161,0.3336,0.3133,0.3125,0.3252,0.3254,0.3256,0.3319,0,0.2415,0.2474,0.2516,0.2587,0.2618,0.2687,0.2753,0.2829,0.2907,0.2995,0.3049,0.3133,0.3127,0.3177,0.3215,0.3246,0.3281,0.323,0.3266,0.3266,0.3069,0.3133,0.3264,0.3328,0.333,0.3332,0.3334,0,0.2412,0.2456,0.2524,0.2612,0.2637,0.2696,0.2814,0.288,0.3005,0.3074,0.3169,0.3216,0.3304,0.328,0.337,0.3346,0.3355,0.3361,0.3363,0.315,0.3083,0.3234,0.3354,0.3352,0.3351,0.3349,0.3348,0,0.2362,0.2455,0.2513,0.2544,0.2653,0.2716,0.2789,0.2916,0.2987,0.3142,0.3212,0.3316,0.3385,0.3423,0.3451,0.343,0.3526,0.3489,0.3309,0.3295,0.3424,0.3411,0.3542,0.3542,0.3542,0.3542,0.3542,0,0.2327,0.2379,0.2505,0.2534,0.2618,0.2708,0.2818,0.2914,0.3056,0.3133,0.3259,0.3323,0.343,0.3487,0.3491,0.3434,0.3562,0.3324,0.3298,0.3456,0.3447,0.3432,0.3418,0.3544,0.3544,0.3543,0.3543,0,0.225,0.2336,0.2408,0.2545,0.2596,0.2661,0.2822,0.2886,0.305,0.3156,0.3211,0.3365,0.3436,0.3501,0.3568,0.3462,0.3441,0.3387,0.3564,0.3546,0.3173,0.3163,0.318,0.3174,0.3168,0.3163,0.3159,0,0.2206,0.2241,0.2401,0.2447,0.2519,0.2632,0.2698,0.287,0.2931,0.3145,0.3166,0.3311,0.3383,0.3306,0.3406,0.3392,0.3349,0.3308,0.3221,0.3163,0.3138,0.3137,0.3135,0.3151,0.3149,0.3148,0.3146,0,0.2121,0.2207,0.2268,0.2367,0.245,0.2519,0.2629,0.2654,0.2832,0.3008,0.3035,0.3063,0.3135,0.317,0.3185,0.3171,0.3316,0.3248,0.3258,0.3176,0.3127,0.3107,0.3112,0.3127,0.3129,0.3131,0.3132,0,0.2068,0.2089,0.2187,0.2249,0.2345,0.2357,0.2437,0.2485,0.2565,0.2782,0.2792,0.2943,0.3102,0.3058,0.3078,0.3045,0.2988,0.2865,0.2894,0.2917,0.28,0.2698,0.2546,0,0,0,0,0,0.1992,0.1994,0.2051,0.2096,0.218,0.2234,0.2358,0.2438,0.2607,0.2549,0.2657,0.2706,0.2731,0.2823,0.2734,0.2974,0.301,0.2857,0.2886,0.3018,0.3041,0.2927,0,0,0,0,0,0,0.1937,0.1991,0.1998,0.195,0.195,0.2015,0.2085,0.2204,0.2178,0.2366,0.2394,0.254,0.2611,0.275,0.2682,0.2708,0.2667,0.2963,0.2956,0.3005,0.3026,0.3044,0.2935,0,0,0,0,0]},{"header":{"parameterUnit":"m.s-1","parameterCategory":2,"la1":30.2991,"la2":30.254,"lo1":-89.0895,"lo2":-89.0444,"dy":0.0017,"dx":0.0017,"nx":28,"ny":28,"refTime":"2025-03-03T09:00:00:Z","depth":"4","parameterNumber":3,"parameterNumberName":"V-component_of_CURRENTS"},"data":[0,0,0,0,0,0,0,0,0,0,0,0,0,0,0,0,0,0,0,0,0,0,0,0,0,0,0,0,0,0,0,0,0,0,0,0,0,0,0,0,0,0,0,0,0,0,0,0,0,0,0,0,0,0,0,0,0,0,0.0218,0.0217,0,0.0177,0.0176,0.0175,0.0151,0.0151,0.0151,0.0151,0.0103,0.0101,0.01,0,0,0,0,0,0,0,0,0,0,0,0,0,0.0239,0.0239,0.0218,0.0217,0.0217,0.0177,0.0176,0.0175,0.0151,0.0151,0.0151,0.0151,0.0103,0.0102,0.01,0,0,0,0,0,0,0,0,0,0,0,0,0,0.0216,0.0239,0.0218,0.0201,0.0199,0.0177,0.0176,0.0175,0.0151,0.0151,0.0151,0.0151,0.0104,0.0102,0.01,0.0089,0,0,0.0094,0.0093,0,0,0,0,0,0,0,0,0.0217,0.0215,0.0204,0.0202,0.02,0.017,0.0166,0.0146,0.0151,0.0168,0.0151,0.0151,0.0125,0.0121,0.0112,0.0086,0.0084,0.0094,0.0093,0.0092,0.0091,0,0,0,0,0,0,0,0.0219,0.0217,0.02,0.0203,0.0201,0.0183,0.018,0.0162,0.0146,0.0167,0.0165,0.0162,0.0124,0.0114,0.0111,0.0083,0.0094,0.0092,0.0091,0.009,0.0056,0.0056,0,0,0,0,0,0,0.0228,0.0218,0.0202,0.0199,0.021,0.0182,0.0179,0.0179,0.0147,0.0142,0.0162,0.0161,0.0118,0.0113,0.0109,0.0119,0.0092,0.009,0.0089,0.0056,0.0056,0.0056,0,0,0,0,0,0,0.0229,0.0227,0.0203,0.0208,0.0204,0.0183,0.0182,0.0178,0.0175,0.0143,0.0139,0.0165,0.0117,0.0112,0.0103,0.0116,0.0089,0.0088,0.0055,0.0056,0.0056,0.0123,0,0,0,0,0,0,0.023,0.0228,0.0234,0.0209,0.0204,0.0202,0.0182,0.0177,0.0174,0.0172,0.0144,0.0139,0.0117,0.0106,0.0101,0.0113,0.0086,0.0055,0.0056,0.0056,0.012,0.0125,0.013,0,0,0,0,0,0.0231,0.0244,0.0235,0.0233,0.0213,0.0202,0.0199,0.0182,0.0174,0.0178,0.0159,0.014,0.0105,0.0105,0.0099,0.0111,0.0055,0.0056,0.0056,0.0118,0.0124,0.013,0,0,0,0,0,0,0.026,0.0242,0.0232,0.024,0.0226,0.0199,0.0204,0.0189,0.0176,0.0178,0.0145,0.0139,0.0134,0.0112,0.0113,0.01,0.0076,0.0076,0.0125,0.0131,0.0136,0.0155,0.0084,0,0,0,0,0,0.0269,0.0274,0.0251,0.0259,0.0254,0.0229,0.0224,0.0213,0.0196,0.0191,0.0169,0.0147,0.0129,0.0124,0.0102,0.01,0.0069,0.0101,0.0106,0.011,0.0121,0.0082,0.0084,0.0058,0.0058,0.0058,0,0,0.0283,0.0274,0.0277,0.0265,0.0253,0.0259,0.0227,0.0226,0.0233,0.0188,0.0193,0.0163,0.0131,0.0127,0.0122,0.0113,0.0101,0.0111,0.0115,0.0124,0.0083,0.0085,0.0087,0.0058,0.0058,0.0058,0,0,0.0316,0.0306,0.0321,0.0314,0.0302,0.0288,0.0291,0.0269,0.0261,0.0257,0.0226,0.0206,0.0181,0.0161,0.0147,0.0164,0.0124,0.0156,0.0201,0.0163,0.0165,0.0167,0.013,0.0128,0.0162,0.0162,0.0162,0,0.0334,0.035,0.0324,0.0337,0.0343,0.0306,0.0328,0.0314,0.0291,0.0291,0.027,0.0228,0.0198,0.0193,0.0197,0.0177,0.0149,0.0185,0.017,0.0171,0.0171,0.0134,0.013,0.0166,0.0165,0.0165,0.0165,0,0.0375,0.039,0.04,0.0406,0.0407,0.042,0.0399,0.0395,0.0378,0.0363,0.0349,0.03,0.0279,0.026,0.0235,0.0227,0.0204,0.0179,0.016,0.0178,0.0137,0.0132,0.017,0.0169,0.0168,0.0167,0,0,0.0409,0.0427,0.0432,0.0453,0.0448,0.0457,0.0466,0.0467,0.0485,0.0442,0.0454,0.0405,0.0375,0.0357,0.0315,0.0279,0.025,0.0238,0.0235,0.021,0.0168,0.015,0.0143,0.0223,0.0222,0.0222,0.0138,0,0.0451,0.0498,0.0494,0.0545,0.0567,0.0546,0.0562,0.0557,0.0545,0.0544,0.048,0.0476,0.0414,0.0408,0.0361,0.0281,0.0241,0.0275,0.0147,0.0144,0.0132,0.0138,0.0221,0.0134,0.0133,0.0132,0.0131,0,0.0489,0.052,0.0578,0.062,0.063,0.0654,0.0682,0.0695,0.0677,0.0668,0.0639,0.0589,0.0536,0.0476,0.0348,0.0374,0.0282,0.0209,0.0203,0.0163,0.0118,0.011,0.0122,0.0123,0.0124,0.0124,0.0125,0,0.0526,0.0579,0.0633,0.0646,0.0683,0.0709,0.0731,0.0735,0.0768,0.0754,0.0767,0.0685,0.0655,0.0527,0.0372,0.0363,0.0221,0.0186,0.0081,0.0078,0.0089,0.0089,0.0093,0.0093,0.0093,0.0094,0.0094,0,0.0564,0.0609,0.0659,0.0689,0.0763,0.0768,0.0846,0.0849,0.0875,0.0927,0.0842,0.0845,0.0667,0.0559,0.0405,0.0234,0.0243,0.0093,0.0057,0.0118,0.0122,0.0086,0.0086,0.009,0.0091,0.0092,0.0092,0,0.0585,0.0617,0.0688,0.0752,0.0782,0.0836,0.0931,0.0983,0.0997,0.1056,0.1057,0.097,0.0832,0.064,0.0432,0.0292,0.0119,0.0052,0.0142,0.0111,-0.0009,-0.0004,-0.007,-0.0071,-0.0072,-0.0073,-0.0074,0,0.0594,0.0632,0.0738,0.0795,0.0831,0.092,0.0986,0.1039,0.1103,0.1131,0.1157,0.105,0.0963,0.0665,0.0448,0.0154,0.0102,0.0006,-0.0014,0.0004,-0.0025,-0.0019,-0.0013,-0.0076,-0.0076,-0.0076,-0.0076,0,0.061,0.0654,0.0715,0.0837,0.0925,0.1032,0.113,0.1187,0.125,0.1266,0.1246,0.1089,0.093,0.0678,0.0451,0.0235,0.0064,-0.0006,-0.0006,-0.0026,-0.0004,-0.003,-0.0023,-0.008,-0.008,-0.0079,-0.0079,0,0.0621,0.0669,0.0759,0.0867,0.0986,0.1102,0.1161,0.1234,0.1295,0.1323,0.1314,0.1137,0.1042,0.072,0.051,0.0297,0.0229,0.014,0.0131,0.0133,0.0205,0.0263,0.0245,0,0,0,0,0,0.0623,0.068,0.0781,0.0905,0.103,0.1108,0.1236,0.1286,0.1351,0.1351,0.1339,0.1191,0.0885,0.0752,0.0537,0.0462,0.0175,0.0198,0.0065,-0.0101,-0.0096,-0.0049,0,0,0,0,0,0,0.0621,0.071,0.0769,0.0918,0.1013,0.1156,0.1246,0.1297,0.13,0.1327,0.1174,0.1113,0.0819,0.1009,0.0526,0.0462,0.034,0.0064,0.0058,-0.0103,-0.0099,-0.0096,-0.0046,0,0,0,0,0]}]]